Location: Geography Hall
(41.1195°N, 80.5706°W)
Time: 00:24:43
(UTC+00:00)

Cosmos 1408 - Pass Details

Date: 29 October 2020
Orbit: 470 x 492 km, 82.6° (Epoch: 03 December)

Event Time Altitude Azimuth Distance (km) Brightness Sun altitude
Rises 22:56:56 0° 9° (N) 2,558 6.0 -7.4°
Reaches altitude 10° 22:59:35 10° 29° (NNE) 1,678 4.9 -7.9°
Maximum altitude 23:02:07 18° 73° (ENE) 1,274 4.0 -8.3°
Drops below altitude 10° 23:04:40 10° 117° (ESE) 1,676 4.8 -8.8°
Sets 23:07:18 0° 138° (SE) 2,556 5.9 -9.3°
